Location: Unspecified
(0.0000°N, 0.0000°E)
Time: 05:51:27
(UTC+00:00)

Courier 1B Rocket - Pass Details

Date: 18 April 2021
Orbit: 920 x 1202 km, 28.3° (Epoch: 16 May)

Event Time Altitude Azimuth Distance (km) Brightness Sun altitude
Exits shadow 03:46:27 54° 345° (NNW) 1,412 5.7 -32.6°
Maximum altitude 03:47:53 63° 30° (NNE) 1,301 5.6 -32.2°
Drops below altitude 10° 03:55:22 10° 110° (ESE) 3,028 8.2 -30.4°
Sets 03:58:08 0° 113° (ESE) 3,953 8.9 -29.7°
